GFSSW_925_thetae_021.txt.gz
Theta_e
309 309 309 309 310 310 310 310 309 308 308 308 309 312 312 313 314 313 314 314 316 316 313 316 316 316 315 317 318 317 314 315 318 320 319 315 316 314 312 315 315 314 314 312 312
310 310 310 311 311 311 311 311 310 310 309 308 307 309 312 312 313 315 315 315 315 313 314 315 314 314 314 318 317 317 315 317 317 317 317 315 314 313 315 313 313 314 308 310 309
311 311 311 311 311 311 311 311 311 310 310 309 308 308 312 312 319 317 317 316 314 312 315 315 315 315 316 317 317 316 316 317 318 317 314 316 315 313 313 313 310 312 309 307 305
311 311 311 311 310 310 310 310 310 310 310 309 307 307 311 315 309 316 315 314 312 312 314 314 314 316 316 317 317 318 316 316 317 316 316 315 313 315 311 313 313 310 309 307 305
313 313 311 311 311 311 311 311 310 310 309 308 307 307 312 317 314 315 313 312 311 312 314 314 314 316 317 318 318 317 316 316 315 314 314 314 313 313 312 310 309 310 308 307 306
311 310 310 309 310 311 311 311 311 310 309 308 307 308 312 314 313 315 313 311 311 312 313 313 314 314 316 316 316 316 316 314 314 314 313 314 313 314 312 311 310 310 308 306 307
314 313 313 311 306 305 307 311 311 310 309 307 307 310 317 310 313 313 312 311 312 312 312 313 314 314 315 318 315 315 316 312 313 313 314 313 314 313 313 313 311 310 309 307 306
314 314 313 312 311 308 305 305 307 309 309 307 310 314 310 313 313 312 311 311 311 311 312 313 314 314 316 315 315 315 314 315 314 313 314 313 315 313 311 310 311 309 307 307 307
315 314 314 313 312 310 307 306 305 306 307 310 313 317 313 313 312 313 312 311 310 311 312 312 314 313 315 313 313 312 313 314 315 313 313 313 314 313 311 309 311 308 309 308 307
315 315 314 314 313 309 307 306 306 308 313 315 316 315 312 313 314 312 311 311 311 311 312 312 311 312 312 311 313 312 313 313 313 314 313 312 313 313 311 311 310 308 306 307 309
316 316 315 315 314 310 310 309 309 311 315 310 311 311 313 313 313 311 311 311 312 312 311 311 311 312 311 313 312 311 311 311 313 313 315 314 315 314 313 310 309 311 311 309 310
317 317 316 316 313 313 311 311 310 310 307 308 308 311 313 314 313 312 310 310 311 312 312 313 313 312 311 311 313 313 313 313 313 312 312 312 313 313 311 313 313 312 310 310 310
318 317 316 317 314 312 313 310 309 311 311 310 308 307 308 313 312 313 309 309 310 310 311 312 312 314 314 314 314 313 312 313 312 312 310 311 312 312 311 312 312 312 312 311 311
320 318 317 318 315 313 312 309 309 310 304 308 309 311 311 311 310 310 309 309 310 311 310 311 312 312 312 313 313 314 311 312 313 313 314 311 314 311 312 311 311 312 311 311 308
322 320 317 316 316 313 312 309 308 309 307 310 309 310 311 308 308 309 307 309 310 311 311 312 312 311 312 312 311 314 312 311 313 313 313 314 315 314 311 310 310 310 311 310 307
323 322 319 316 314 317 313 308 309 305 308 309 309 310 311 311 310 307 308 307 308 310 309 309 310 312 311 310 310 310 312 311 310 309 314 313 314 312 310 311 310 311 310 309 308
322 321 319 317 315 314 309 310 316 309 308 311 310 311 311 312 311 308 308 308 308 310 308 308 309 309 310 312 309 310 311 313 312 312 315 310 312 314 311 309 309 310 310 309 306
320 320 319 318 315 314 310 314 323 318 312 311 311 310 311 311 312 309 309 308 306 308 309 310 310 309 308 311 310 309 312 313 311 312 313 308 311 311 310 311 308 308 308 306 305
316 318 316 319 316 314 313 317 325 322 318 319 319 313 311 311 309 311 308 308 308 307 310 310 311 309 308 309 310 310 312 311 314 298 309 313 310 309 309 308 307 306 305 305 304
313 315 315 318 316 311 313 322 322 318 319 315 321 318 317 312 311 312 311 309 310 308 310 310 312 309 307 307 307 309 308 312 312 313 311 313 311 312 310 310 309 307 304 303 303
312 317 316 316 312 312 315 315 317 316 316 319 321 319 316 318 310 310 311 310 308 310 310 309 311 312 306 307 310 307 309 309 310 312 315 314 313 309 308 307 309 307 304 302 303
312 315 313 313 315 313 317 315 315 316 313 316 309 314 319 320 322 322 321 316 310 310 313 311 312 315 312 307 305 308 310 311 313 313 310 312 313 312 310 306 308 308 305 304 303
311 313 311 313 318 318 313 314 314 316 316 316 317 315 316 316 318 317 316 316 316 315 313 314 313 317 316 313 306 307 307 308 310 311 314 315 314 312 310 307 306 304 303 303 303
305 310 311 309 313 316 316 316 316 313 314 315 316 316 317 319 318 319 317 314 311 310 313 313 312 316 319 316 312 312 310 308 310 312 312 312 313 311 311 311 311 311 310 310 306
301 303 306 308 311 312 314 314 315 314 314 314 315 315 316 318 318 318 316 315 312 311 313 314 315 315 314 314 314 314 315 313 313 313 316 315 313 311 310 310 309 309 309 306 306
300 300 301 301 304 308 308 311 312 311 311 312 312 308 307 311 314 316 314 314 315 311 312 312 316 316 316 314 314 316 314 313 314 314 314 313 314 312 313 313 313 313 312 308 308
297 298 300 298 299 300 301 304 306 305 306 305 304 304 304 304 306 305 303 303 305 310 313 313 314 316 317 314 314 316 315 315 314 313 314 315 313 311 311 311 312 312 311 310 309

GFSSW_925_thetae_024.txt.gz
Theta_e
309 310 310 310 310 311 311 311 310 310 309 308 307 308 311 312 313 313 313 313 315 315 314 314 316 316 315 315 316 312 311 313 315 318 317 314 315 314 312 314 313 312 311 310 311
310 310 310 310 310 311 311 311 311 310 310 309 308 307 309 312 312 313 313 314 315 315 315 314 313 313 312 316 316 315 311 311 312 316 315 315 313 314 314 312 313 313 309 309 309
311 311 311 310 310 310 310 310 310 310 310 309 308 307 308 312 316 314 317 314 315 314 314 315 315 313 315 315 316 315 315 314 316 316 314 314 314 312 313 312 310 311 309 305 305
311 311 311 311 311 311 311 311 311 310 310 309 308 307 308 313 308 316 314 316 314 312 315 314 313 314 315 316 315 317 314 314 315 316 315 314 313 313 310 314 311 308 308 305 304
312 311 310 309 309 311 311 311 311 311 310 309 307 307 310 315 312 312 314 314 312 311 313 311 313 314 315 314 316 316 315 315 314 314 312 313 313 312 310 309 308 309 306 306 305
314 314 314 312 310 306 306 307 310 311 311 310 308 307 311 308 311 314 314 312 311 312 312 312 311 312 314 315 315 314 315 314 313 313 313 314 312 313 313 310 308 308 306 305 306
315 314 314 314 312 310 308 306 305 305 309 309 307 309 316 308 311 313 313 311 311 312 311 312 313 313 313 315 314 314 315 312 314 312 312 311 312 312 313 311 310 309 307 305 305
315 315 315 315 314 311 310 309 307 305 305 307 308 312 308 311 312 313 312 310 310 312 311 313 313 313 314 312 312 314 313 314 312 311 312 312 314 313 310 310 310 308 308 306 306
315 315 315 315 315 311 308 309 308 306 306 309 312 314 311 312 311 312 311 311 310 310 311 312 313 311 313 312 310 310 309 310 312 311 312 311 313 313 310 308 309 309 306 308 307
316 316 316 316 316 311 309 309 308 309 313 314 317 314 310 311 313 312 311 311 310 310 310 311 309 310 311 309 311 309 311 311 312 312 312 312 312 313 311 309 307 307 307 305 307
317 317 317 317 317 312 310 311 307 307 314 308 310 309 312 313 313 310 310 311 311 310 309 310 310 310 310 311 311 310 309 310 310 310 313 312 313 313 313 310 308 308 310 309 305
318 318 318 318 317 313 311 311 309 309 305 307 305 309 311 312 312 310 310 309 311 311 309 311 310 309 309 309 310 311 312 312 311 311 310 311 312 312 311 312 312 311 311 310 310
320 319 318 319 317 314 311 308 309 311 309 308 307 306 306 311 311 311 308 308 309 310 309 311 310 311 310 310 311 310 311 312 312 310 308 308 311 310 309 311 312 311 311 311 310
322 321 320 319 316 315 312 310 308 310 303 305 309 308 310 310 308 308 307 309 309 310 308 309 310 311 311 312 311 312 310 311 311 311 312 309 313 310 309 309 309 310 310 310 310
323 322 321 318 317 315 314 311 307 306 320 310 309 310 310 307 307 307 306 309 309 310 310 309 311 310 311 312 310 313 310 310 310 309 310 312 312 311 309 310 310 310 309 309 310
322 322 320 317 316 319 315 309 308 310 319 309 308 310 310 310 309 307 307 306 307 309 308 309 309 309 309 309 308 309 311 310 307 308 314 311 311 311 310 311 310 310 310 309 309
321 322 318 318 315 316 313 309 324 322 312 312 308 310 309 309 309 307 307 308 308 309 307 307 307 308 309 311 309 310 310 311 310 311 314 308 310 313 310 309 309 309 308 308 308
317 319 319 319 318 314 311 319 327 321 314 313 310 309 310 309 310 308 307 307 306 306 306 308 310 307 307 309 309 309 310 312 310 313 313 307 311 311 309 309 308 307 308 307 304
310 315 317 319 318 314 315 324 326 324 317 317 319 317 311 309 309 310 307 307 307 306 309 308 309 308 307 308 309 308 310 310 310 295 306 310 309 310 307 308 307 307 306 302 302
309 315 316 316 318 313 316 323 322 319 320 320 323 320 315 311 310 311 310 308 309 306 307 309 310 309 307 306 307 308 307 311 310 311 309 311 310 312 311 310 308 306 305 303 302
308 312 313 316 313 313 318 319 318 317 318 319 320 321 318 318 314 316 315 311 308 310 307 309 312 311 308 307 310 307 308 308 309 313 316 317 314 313 311 307 306 307 305 303 302
308 311 312 313 315 314 318 317 315 316 315 317 316 318 320 319 321 322 322 319 310 309 311 311 314 317 315 310 306 306 309 310 313 314 312 314 315 313 313 311 310 310 305 304 302
309 311 311 313 316 317 314 314 315 316 316 316 317 315 315 317 319 317 317 316 315 315 315 313 317 320 317 314 312 314 312 309 310 311 313 315 315 312 311 310 309 303 304 306 303
303 306 309 310 312 314 314 314 315 312 313 314 315 314 315 316 315 316 316 315 312 313 315 315 317 319 320 318 313 312 311 311 310 312 313 312 311 310 311 311 311 310 310 309 307
299 302 304 309 310 311 312 312 312 312 312 313 314 314 313 315 314 314 310 306 306 312 312 313 317 316 316 316 315 315 315 315 314 311 311 311 312 311 310 311 312 310 310 307 307
297 299 298 300 300 305 309 310 311 311 311 312 312 303 305 305 306 306 307 304 304 305 305 305 311 313 315 314 314 315 314 314 314 314 315 314 315 313 312 312 312 312 312 311 311
295 297 298 297 298 298 298 302 303 299 302 305 299 297 299 300 297 297 297 298 299 301 301 303 307 308 309 310 312 314 315 314 313 313 314 316 315 312 312 312 311 310 308 304 301

GFSSW_925_thetae_030.txt.gz
Theta_e
309 310 310 310 310 310 310 310 310 310 309 309 309 308 307 307 309 311 311 312 313 314 315 313 313 315 314 313 312 307 310 311 313 312 314 312 313 311 310 312 311 309 310 309 309
310 310 310 310 310 310 310 310 310 310 310 310 309 308 307 307 310 312 311 311 313 313 314 312 312 312 311 314 313 312 308 310 308 310 313 313 312 313 313 312 310 311 308 308 308
310 310 310 310 310 310 310 310 310 310 310 310 310 309 307 308 309 308 315 312 313 314 314 313 313 312 314 314 314 312 314 310 311 309 312 313 312 311 311 311 308 311 310 305 306
312 312 312 311 311 310 309 308 308 309 310 311 310 310 308 310 309 310 314 314 314 314 314 312 311 313 313 314 313 316 312 312 313 313 314 313 310 312 309 314 311 307 308 306 304
314 314 314 314 313 314 313 311 309 307 306 308 310 310 308 309 308 312 311 314 314 313 313 310 311 311 313 311 312 314 313 313 311 311 311 311 312 311 309 309 306 305 305 305 304
315 315 315 314 315 315 315 312 309 309 308 306 305 308 310 308 311 311 312 314 314 313 311 310 310 309 312 312 313 312 312 311 310 311 311 313 313 310 311 308 308 307 305 304 303
315 315 315 315 316 317 317 312 309 309 309 309 305 307 311 307 311 311 313 312 313 312 308 310 311 311 311 312 311 312 312 308 308 310 310 309 312 310 311 309 308 307 305 304 303
315 315 316 316 317 318 316 312 309 308 309 309 305 310 305 308 310 310 311 310 310 311 311 311 311 310 311 310 308 310 309 310 308 308 310 310 311 310 308 307 307 306 304 303 304
316 316 317 317 318 319 316 314 310 309 309 307 310 310 306 308 310 310 311 310 309 310 310 311 310 309 309 307 307 306 307 306 307 307 310 309 309 309 308 307 307 307 306 306 306
318 318 319 319 319 320 317 310 311 313 313 316 315 309 308 309 311 310 309 309 309 308 309 309 306 308 306 306 309 307 306 306 307 308 307 308 309 308 309 307 309 309 309 307 307
320 320 320 320 320 321 318 309 305 304 311 308 310 306 307 310 311 308 309 310 308 307 308 308 307 308 309 307 308 306 305 305 306 307 309 308 308 309 308 308 309 309 309 308 309
321 321 321 321 321 321 314 308 307 306 307 305 305 308 310 311 311 308 309 309 309 309 306 308 308 307 307 306 307 307 308 308 308 308 306 307 308 308 308 309 309 310 310 310 308
324 323 322 321 321 317 312 309 308 309 307 308 305 305 305 309 309 310 307 307 309 307 306 309 309 307 307 307 308 306 307 308 308 307 306 306 308 307 307 307 308 309 309 309 308
323 323 323 323 320 318 312 311 307 308 314 312 307 307 307 307 307 306 306 307 308 309 307 307 307 308 308 308 307 309 306 307 308 308 309 307 311 308 310 309 306 307 307 305 304
322 323 322 322 320 318 314 312 307 305 329 314 307 308 308 305 306 306 305 308 308 308 306 308 308 308 309 309 307 309 308 307 308 308 307 308 308 311 307 308 307 306 305 304 304
321 321 321 320 319 318 314 309 307 321 330 318 307 308 309 308 308 306 307 306 306 307 306 306 305 306 308 307 306 307 309 307 305 306 311 309 308 310 308 309 308 308 307 305 304
317 318 319 319 318 317 316 315 323 325 320 318 310 308 308 308 308 307 308 308 307 309 307 306 306 307 306 308 307 308 308 310 310 310 314 307 308 312 309 307 308 309 307 305 303
310 312 315 318 318 318 316 322 323 323 324 316 310 309 311 307 310 307 306 306 305 306 304 307 316 306 305 307 309 306 307 309 309 311 315 307 312 313 307 307 305 304 304 303 302
305 307 313 313 318 317 318 325 323 323 320 320 320 322 319 311 312 313 306 306 306 305 310 307 309 306 304 306 306 306 309 307 309 298 304 311 310 311 308 307 306 306 304 304 301
302 307 310 308 315 314 318 323 320 319 318 319 324 322 322 315 311 311 311 307 307 305 306 309 310 306 306 306 306 306 306 309 306 313 310 312 310 313 312 310 308 305 303 302 302
302 307 307 311 315 315 317 319 318 316 317 319 322 322 320 320 317 318 319 315 307 307 305 308 312 315 310 307 307 306 308 307 307 312 316 319 316 313 311 309 307 309 308 305 304
304 304 308 313 312 313 314 313 312 314 315 316 317 320 320 320 320 320 321 318 315 313 318 309 314 317 316 312 307 308 313 312 315 316 311 313 315 312 311 310 309 309 309 307 301
303 303 308 312 312 312 311 312 312 312 312 314 315 315 313 314 316 315 316 313 309 312 314 313 316 318 315 311 308 312 311 311 312 313 315 316 315 311 311 311 310 307 299 300 299
300 301 300 309 308 310 311 310 310 311 313 312 313 313 313 314 314 315 314 311 305 307 310 311 313 315 316 314 309 311 309 307 308 309 311 311 315 314 310 305 297 298 296 295 294
296 298 299 306 304 306 307 309 309 309 310 309 311 311 311 313 313 312 307 302 303 303 304 305 306 307 304 303 303 303 303 303 304 304 306 305 306 305 296 295 297 294 293 293 293
294 297 297 296 297 300 302 304 305 306 307 307 309 306 306 309 305 305 299 300 300 299 297 298 300 299 298 299 298 298 297 297 299 299 301 306 304 294 293 293 294 294 292 291 291
292 294 296 294 296 297 297 300 297 298 297 299 297 298 299 300 295 295 295 296 296 295 295 295 295 289 297 296 293 292 293 294 296 296 296 300 295 293 292 291 291 292 292 290 290

GFSSW_925_thetae_033.txt.gz
Theta_e
309 310 310 310 310 310 310 310 310 309 309 309 309 309 308 307 308 310 310 311 313 313 314 312 314 314 313 312 310 307 312 312 313 311 313 311 313 309 309 311 310 309 310 310 310
310 310 310 310 310 310 310 310 310 310 310 310 310 309 308 308 310 311 311 311 312 313 314 312 311 312 311 313 313 312 311 311 309 308 312 312 311 313 312 312 310 310 309 308 309
311 311 311 310 310 310 309 309 308 309 310 310 310 310 309 308 308 308 314 313 312 313 313 312 312 311 313 313 313 311 314 310 310 307 310 312 311 310 311 312 311 311 311 306 306
313 313 313 313 312 312 311 310 309 308 307 308 309 310 310 310 310 309 314 313 312 313 313 312 310 312 313 313 312 315 312 311 312 311 312 312 310 311 309 315 312 309 310 307 306
315 314 314 314 314 314 314 314 312 310 310 308 306 305 309 307 307 312 311 313 313 313 313 309 311 310 313 310 311 313 313 312 311 311 310 310 312 312 309 310 310 307 305 307 306
315 315 315 315 316 316 317 316 313 310 310 310 309 305 309 307 310 310 311 313 313 313 311 310 309 309 310 311 312 310 311 311 309 310 310 312 313 311 311 309 308 307 308 306 305
315 315 315 316 317 318 319 316 314 311 309 309 309 306 308 305 309 311 312 313 313 313 308 310 310 310 309 311 309 311 312 308 308 308 309 308 312 309 311 309 309 307 306 305 304
316 316 316 317 318 319 320 318 316 313 309 308 308 307 303 307 308 309 311 311 311 311 310 310 310 310 311 309 307 309 308 309 308 307 309 310 311 310 308 307 308 307 305 305 305
317 318 318 319 320 321 321 318 312 310 309 307 309 307 305 307 309 309 310 309 309 309 309 309 310 308 308 308 307 305 308 306 307 306 309 310 310 309 306 306 308 308 308 308 308
319 319 319 320 320 321 321 315 310 313 314 315 312 308 306 309 310 309 309 308 308 307 309 308 305 307 305 306 310 308 306 305 307 308 306 308 309 308 307 306 308 308 309 309 309
320 320 321 321 321 322 320 309 308 308 308 307 309 305 307 309 310 308 308 309 307 306 308 308 307 309 308 306 307 306 305 305 304 306 306 308 308 307 307 306 308 309 308 308 307
322 322 322 321 322 321 316 307 306 306 308 307 305 307 308 310 311 307 308 309 308 309 305 307 308 307 306 305 306 307 308 308 307 307 305 306 308 308 308 309 309 309 309 307 306
322 322 322 323 323 319 311 309 308 308 307 309 305 305 306 308 309 309 307 307 308 306 306 309 309 307 306 307 307 305 307 308 307 305 305 305 308 307 307 306 307 308 307 307 306
322 322 323 324 321 319 312 312 307 307 315 315 308 307 306 306 307 305 306 307 307 308 306 306 306 308 306 307 306 309 306 306 307 307 309 306 311 311 311 310 309 306 305 304 304
321 321 322 322 322 319 315 312 307 306 328 314 306 307 307 305 306 306 305 307 308 307 307 309 307 307 308 308 305 308 307 307 306 307 308 307 309 308 307 310 308 308 307 305 304
320 320 320 320 320 318 317 316 309 322 331 319 306 308 309 308 307 305 306 305 305 306 305 305 304 306 307 306 306 307 308 306 304 306 310 309 309 310 308 309 308 308 307 304 303
315 316 318 319 318 318 318 317 324 327 321 318 308 307 307 307 308 307 308 308 308 309 307 305 306 306 306 308 306 308 307 311 312 311 316 306 308 312 309 311 307 306 305 303 301
308 309 313 317 318 318 317 322 324 322 323 318 318 314 311 308 308 307 306 307 305 306 308 308 318 306 305 308 309 307 309 315 314 314 317 306 311 312 307 307 305 303 303 302 305
305 306 308 310 316 317 318 325 321 320 320 320 319 320 321 314 316 314 309 310 308 306 319 319 313 305 303 305 307 307 309 308 311 297 307 313 313 311 306 306 306 303 304 304 302
301 305 309 307 313 315 318 320 320 319 318 319 324 322 322 318 314 315 314 309 308 305 305 311 316 310 307 305 305 306 305 310 309 315 318 313 313 313 310 310 306 306 301 300 298
300 303 305 310 313 313 313 311 316 316 316 318 321 321 320 320 318 318 319 315 307 306 306 313 312 315 312 310 313 313 309 308 308 312 318 318 315 310 309 306 303 303 302 298 296
303 300 307 311 313 311 313 311 310 312 313 316 317 318 317 317 318 318 319 317 315 315 318 314 315 318 315 310 307 308 311 310 314 315 313 315 316 311 309 304 300 298 296 294 293
302 301 307 310 310 310 310 311 311 312 310 312 313 314 313 313 314 313 313 309 309 313 315 314 315 317 312 309 309 312 312 311 308 311 315 317 317 306 304 302 296 295 293 292 292
299 299 299 308 307 309 308 308 309 308 310 310 311 311 312 313 312 313 314 310 305 307 310 310 312 315 314 311 307 310 306 304 304 307 307 307 306 304 301 297 296 294 293 292 290
293 296 297 298 303 305 306 306 307 307 307 307 308 310 309 311 308 308 307 303 302 299 301 305 309 306 310 304 301 301 302 301 301 301 301 300 299 299 296 293 292 291 291 292 289
294 295 296 296 297 301 302 302 303 303 303 304 306 301 304 309 306 306 299 300 300 297 298 298 301 299 296 299 300 299 295 295 295 294 294 295 296 294 293 291 290 290 289 292 289
292 293 294 292 295 296 297 299 297 297 295 296 296 296 297 300 296 296 295 295 296 297 295 295 297 291 299 297 291 290 293 294 293 293 294 297 294 292 291 291 290 289 289 291 288